This is the latest recevied weather packets stored in our database for station/object K4PAD. If no packets are shown the sender has not sent any weather packets the latest 10 day(s).
| Time | Temp. | Humidity | Pressure | Rain* | Wind** | Luminosity | Snow |
|---|---|---|---|---|---|---|---|
| 1777596248 | 22.78° C | 84% | 1011.5 hPa | 0 mm | - | 0 W/m² | - |
| 1777595945 | 22.78° C | 84% | 1011 hPa | 0 mm | - | 0 W/m² | - |
| 1777595645 | 23.33° C | 83% | 1011 hPa | 0 mm | - | 0 W/m² | - |
| 1777595341 | 23.33° C | 82% | 1010.9 hPa | 0 mm | - | 0 W/m² | - |
| 1777595037 | 23.89° C | 80% | 1010.7 hPa | 0 mm | - | 0 W/m² | - |
| 1777594734 | 23.89° C | 79% | 1010.8 hPa | 0 mm | - | 0 W/m² | - |
| 1777594430 | 23.89° C | 78% | 1010.5 hPa | 0 mm | - | 0 W/m² | - |
| 1777594126 | 24.44° C | 77% | 1010.6 hPa | 0 mm | - | 0 W/m² | - |
| 1777593822 | 25° C | 75% | 1010.4 hPa | 0 mm | - | 1 W/m² | - |
| 1777593519 | 25° C | 73% | 1010.4 hPa | 0 mm | - | 1 W/m² | - |
| 1777593213 | 25.56° C | 71% | 1010.2 hPa | 0 mm | - | 2 W/m² | - |
| 1777592912 | 25.56° C | 69% | 1010.2 hPa | 0 mm | - | 3 W/m² | - |
| 1777592603 | 26.67° C | 67% | 1010.1 hPa | 0 mm | - | 5 W/m² | - |
| 1777592299 | 27.22° C | 63% | 1010 hPa | 0 mm | - | 7 W/m² | - |
| 1777591994 | 27.78° C | 59% | 1009.9 hPa | 0 mm | - | 6 W/m² | - |
| 1777591690 | 28.33° C | 55% | 1009.6 hPa | 0 mm | - | 7 W/m² | - |
| 1777591387 | 29.44° C | 53% | 1009.4 hPa | 0 mm | - | 10 W/m² | - |
| 1777591082 | 29.44° C | 50% | 1009.2 hPa | 0 mm | - | 17 W/m² | - |
| 1777590778 | 29.44° C | 50% | 1009 hPa | 0 mm | - | 32 W/m² | - |
| 1777590474 | 29.44° C | 50% | 1009 hPa | 0 mm | - | 34 W/m² | - |
| 1777590171 | 29.44° C | 49% | 1009 hPa | 0 mm | - | 39 W/m² | - |
| 1777589867 | 30° C | 49% | 1009 hPa | 0 mm | - | 44 W/m² | - |
| 1777589563 | 30° C | 48% | 1009.2 hPa | 0 mm | - | 44 W/m² | - |
| 1777589261 | 30° C | 48% | 1009.2 hPa | 0 mm | - | 50 W/m² | - |
| 1777588959 | 30° C | 48% | 1009 hPa | 0 mm | - | 60 W/m² | - |
* Rain latest hour (hover to see other rain measurements)
** Current wind speed in m/s (hover to see current wind gust speed)